Location: Edinburgh
(55.9500°N, 3.1600°W)
Time: 22:34:16
(UTC+00:00)

Envisat - Pass Details

Date: 09 October 2017
Orbit: 764 x 766 km, 98.2° (Epoch: 18 December)

Event Time Altitude Azimuth Distance (km) Brightness Sun altitude
Exits shadow 20:03:49 13° 140° (SE) 2,092 4.8 -14.4°
Maximum altitude 20:08:11 53° 66° (ENE) 942 3.1 -15.0°
Drops below altitude 10° 20:13:09 10° 351° (N) 2,320 5.8 -15.6°
Sets 20:15:30 0° 347° (NNW) 3,251 6.6 -16.0°
